{"data":{"norad_id":57153,"intl_designator":"2023-090BE","name":"STARLINK-5879","alt_names":[],"object_type":"PAYLOAD","status":"ACTIVE","operator":null,"country":"US","launch_date":"2023-06-23","launch_site_code":"AFETR","launch_vehicle":null,"mission":null,"orbit_class":"UNKNOWN","rcs_meters":null,"size_class":null,"mass_kg":null,"dimensions":null,"purposes":["comms"],"wikipedia_slug":null,"has_3d_model":false,"image_url":null,"decayed_at":null,"tle_current":{"epoch":"2026-09-20T22:51:58.572000Z","epoch_age_seconds":81804,"freshness":"FRESH","line1":"1 57153U 23090BE  26263.95276125 -.00000222  00000+0  14309-5 0  9999","line2":"2 57153  43.0024 229.5125 0000692 300.9681  59.1103 15.27585015180036","mean_motion":15.27585015,"eccentricity":6.92e-5,"inclination_deg":43.0024,"raan_deg":229.5125,"arg_perigee_deg":300.9681,"mean_anomaly_deg":59.1103,"bstar":1.4309e-6,"rev_number":18003,"period_min":94.266439239717,"perigee_km":482.55928632791,"apogee_km":483.50887240529,"semimajor_km":6861.1710793666,"source":"CELESTRAK","updated_at":"2026-09-21T09:00:33.582917Z"}}}